timestamp,wind_dir_avg,wind_spd_avg,wind_spd_max_dir,wind_spd_gust,battery_voltage,lat,long
2022-06-10 00:04:01+00:00,18.0,0.37,30.0,0.55,12.97,47.59359,-54.27349
2022-06-10 00:14:01+00:00,54.0,1.65,61.0,1.83,12.49,47.59359,-54.27349
2022-06-10 00:24:01+00:00,56.0,1.89,57.0,2.02,12.49,47.59359,-54.27349
2022-06-10 00:34:01+00:00,217.0,0.57,229.0,1.05,12.49,47.59359,-54.27349
2022-06-10 00:44:01+00:00,267.0,0.8,266.0,0.91,12.49,47.59359,-54.27349
2022-06-10 00:54:01+00:00,339.0,0.28,335.0,0.41,12.49,47.59359,-54.27349
2022-06-10 01:04:01+00:00,31.0,1.55,32.0,1.61,12.49,47.59359,-54.27349
2022-06-10 01:14:01+00:00,49.0,2.31,49.0,2.59,12.41,47.59359,-54.27349
2022-06-10 01:24:01+00:00,43.0,1.97,45.0,2.11,12.41,47.59359,-54.27349
2022-06-10 01:34:01+00:00,52.0,2.22,55.0,2.42,12.41,47.59359,-54.27349
2022-06-10 01:44:01+00:00,56.0,1.88,57.0,1.98,12.41,47.59359,-54.27349
2022-06-10 01:54:01+00:00,61.0,2.39,63.0,2.51,12.41,47.59359,-54.27349
2022-06-10 02:04:01+00:00,78.0,1.52,76.0,2.03,12.41,47.59359,-54.27349
2022-06-10 02:14:01+00:00,41.0,1.68,43.0,1.95,12.33,47.59359,-54.27349
2022-06-10 02:24:01+00:00,14.0,1.86,15.0,2.01,12.33,47.59359,-54.27349
2022-06-10 02:34:01+00:00,18.0,1.71,18.0,1.82,12.33,47.59359,-54.27349
2022-06-10 02:44:01+00:00,20.0,2.11,22.0,2.37,12.33,47.59359,-54.27349
2022-06-10 02:54:01+00:00,28.0,1.78,29.0,1.91,12.33,47.59359,-54.27349
2022-06-10 03:04:01+00:00,42.0,1.06,56.0,1.59,12.33,47.59359,-54.27349
2022-06-10 03:14:00+00:00,60.0,2.09,54.0,2.38,12.41,47.59359,-54.27349
2022-06-10 03:24:00+00:00,107.0,0.92,103.0,1.31,12.41,47.59359,-54.27349
2022-06-10 03:34:00+00:00,211.0,0.91,203.0,1.19,12.41,47.59359,-54.27349
2022-06-10 03:44:00+00:00,95.0,0.64,99.0,1.02,12.41,47.59359,-54.27349
2022-06-10 03:54:00+00:00,252.0,1.44,234.0,2.27,12.41,47.59359,-54.27349
2022-06-10 04:04:00+00:00,250.0,1.64,248.0,2.03,12.41,47.59359,-54.27349
2022-06-10 04:14:00+00:00,223.0,3.41,224.0,3.68,12.41,47.59359,-54.27349
2022-06-10 04:24:00+00:00,181.0,5.75,182.0,7.12,12.41,47.59359,-54.27349
2022-06-10 04:34:00+00:00,176.0,6.32,196.0,6.95,12.41,47.59359,-54.27349
2022-06-10 04:44:00+00:00,179.0,4.99,183.0,5.46,12.41,47.59359,-54.27349
2022-06-10 04:54:00+00:00,186.0,5.17,198.0,6.77,12.41,47.59359,-54.27349
2022-06-10 05:04:00+00:00,185.0,4.89,204.0,6.03,12.41,47.59359,-54.27349
2022-06-10 05:14:00+00:00,173.0,6.02,176.0,6.87,12.33,47.59359,-54.27349
2022-06-10 05:24:00+00:00,175.0,7.4,159.0,8.26,12.33,47.59359,-54.27349
2022-06-10 05:34:00+00:00,166.0,6.46,158.0,7.12,12.33,47.59359,-54.27349
2022-06-10 05:44:00+00:00,166.0,6.57,176.0,7.35,12.33,47.59359,-54.27349
2022-06-10 05:54:00+00:00,167.0,5.9,183.0,6.93,12.33,47.59359,-54.27349
2022-06-10 06:04:00+00:00,162.0,6.3,158.0,7.52,12.33,47.59359,-54.27349
2022-06-10 06:14:00+00:00,152.0,6.48,153.0,7.11,12.33,47.59359,-54.27349
2022-06-10 06:24:00+00:00,157.0,6.4,155.0,7.28,12.33,47.59359,-54.27349
2022-06-10 06:34:00+00:00,160.0,5.25,158.0,6.45,12.33,47.59359,-54.27349
2022-06-10 06:44:00+00:00,169.0,4.15,164.0,4.61,12.33,47.59359,-54.27349
2022-06-10 06:54:00+00:00,180.0,4.57,201.0,5.62,12.33,47.59359,-54.27349
2022-06-10 07:04:00+00:00,183.0,2.96,177.0,3.59,12.33,47.59359,-54.27349
2022-06-10 07:14:01+00:00,174.0,4.4,181.0,5.16,12.25,47.59359,-54.27349
2022-06-10 07:24:01+00:00,187.0,4.47,184.0,5.12,12.25,47.59359,-54.27349
2022-06-10 07:34:01+00:00,184.0,3.76,170.0,4.75,12.25,47.59359,-54.27349
2022-06-10 07:44:01+00:00,178.0,4.61,180.0,5.63,12.25,47.59359,-54.27349
2022-06-10 07:54:01+00:00,178.0,4.19,205.0,5.11,12.25,47.59359,-54.27349
2022-06-10 08:04:01+00:00,179.0,5.55,173.0,6.82,12.25,47.59359,-54.27349
2022-06-10 08:14:00+00:00,187.0,7.77,191.0,10.87,12.25,47.59359,-54.27349
2022-06-10 08:24:00+00:00,186.0,7.36,191.0,8.66,12.25,47.59359,-54.27349
2022-06-10 08:34:00+00:00,191.0,7.43,195.0,8.56,12.25,47.59359,-54.27349
2022-06-10 08:44:00+00:00,188.0,8.55,159.0,9.87,12.25,47.59359,-54.27349
2022-06-10 08:54:00+00:00,176.0,6.53,179.0,7.31,12.25,47.59359,-54.27349
2022-06-10 09:04:00+00:00,191.0,5.1,201.0,5.73,12.25,47.59359,-54.27349
2022-06-10 09:14:00+00:00,262.0,1.81,256.0,3.76,12.25,47.59359,-54.27349
2022-06-10 09:24:00+00:00,280.0,3.8,284.0,4.68,12.25,47.59359,-54.27349
2022-06-10 09:34:00+00:00,263.0,3.82,257.0,4.25,12.25,47.59359,-54.27349
2022-06-10 09:44:00+00:00,261.0,4.66,268.0,9.55,12.25,47.59359,-54.27349
2022-06-10 09:54:00+00:00,247.0,6.43,254.0,10.01,12.25,47.59359,-54.27349
2022-06-10 10:04:00+00:00,315.0,0.01,187.0,0.0,12.25,47.59359,-54.27349
2022-06-10 10:14:00+00:00,315.0,0.01,187.0,0.0,12.33,47.59359,-54.27349
2022-06-10 10:24:00+00:00,315.0,0.01,187.0,0.0,12.33,47.59359,-54.27349
2022-06-10 10:34:00+00:00,315.0,0.01,187.0,0.0,12.33,47.59359,-54.27349
2022-06-10 10:44:00+00:00,315.0,0.01,187.0,0.0,12.33,47.59359,-54.27349
2022-06-10 10:54:00+00:00,315.0,0.01,187.0,0.0,12.33,47.59359,-54.27349
2022-06-10 11:04:00+00:00,128.0,1.99,129.0,1.99,12.33,47.59359,-54.27349
2022-06-10 11:14:00+00:00,115.0,0.5,99.0,2.04,12.33,47.59359,-54.27349
2022-06-10 11:24:00+00:00,77.0,2.0,76.0,2.01,12.33,47.59359,-54.27349
2022-06-10 11:34:00+00:00,112.0,1.98,117.0,2.57,12.33,47.59359,-54.27349
2022-06-10 11:44:00+00:00,137.0,4.21,136.0,4.44,12.33,47.59359,-54.27349
2022-06-10 11:54:00+00:00,315.0,0.01,152.0,0.0,12.33,47.59359,-54.27349
2022-06-10 12:04:00+00:00,315.0,0.01,136.0,0.0,12.33,47.59359,-54.27349
2022-06-10 12:14:00+00:00,183.0,5.4,209.0,7.89,12.41,47.59359,-54.27349
2022-06-10 12:24:00+00:00,175.0,6.63,185.0,6.81,12.41,47.59359,-54.27349
2022-06-10 12:34:00+00:00,315.0,0.01,195.0,0.0,12.41,47.59359,-54.27349
2022-06-10 12:44:00+00:00,201.0,8.39,204.0,8.98,12.41,47.59359,-54.27349
2022-06-10 12:54:00+00:00,197.0,9.37,196.0,11.76,12.41,47.59359,-54.27349
2022-06-10 13:04:00+00:00,204.0,9.61,222.0,10.82,12.41,47.59359,-54.27349
2022-06-10 13:14:00+00:00,185.0,8.43,197.0,9.3,13.21,47.59359,-54.27349
2022-06-10 13:24:00+00:00,168.0,7.96,166.0,8.3,13.21,47.59359,-54.27349
2022-06-10 13:34:00+00:00,181.0,8.8,196.0,9.63,13.21,47.59359,-54.27349
2022-06-10 13:44:00+00:00,205.0,8.33,204.0,9.67,13.21,47.59359,-54.27349
2022-06-10 13:54:00+00:00,204.0,7.28,201.0,8.58,13.21,47.59359,-54.27349
2022-06-10 14:04:00+00:00,182.0,8.58,172.0,9.71,13.21,47.59359,-54.27349
2022-06-10 14:14:00+00:00,193.0,8.66,200.0,10.05,13.21,47.59359,-54.27349
2022-06-10 14:24:00+00:00,200.0,10.05,216.0,12.57,13.21,47.59359,-54.27349
2022-06-10 14:34:00+00:00,201.0,8.57,198.0,10.82,13.21,47.59359,-54.27349
2022-06-10 14:44:00+00:00,205.0,9.86,224.0,12.22,13.21,47.59359,-54.27349
2022-06-10 14:54:00+00:00,212.0,11.32,218.0,13.3,13.21,47.59359,-54.27349
2022-06-10 15:04:00+00:00,226.0,11.75,227.0,14.08,13.21,47.59359,-54.27349
2022-06-10 15:14:00+00:00,226.0,11.95,230.0,13.3,13.44,47.59359,-54.27349
2022-06-10 15:24:00+00:00,221.0,11.58,225.0,13.46,13.44,47.59359,-54.27349
2022-06-10 15:34:00+00:00,219.0,10.32,228.0,12.7,13.44,47.59359,-54.27349
2022-06-10 15:44:00+00:00,208.0,9.35,216.0,11.03,13.44,47.59359,-54.27349
2022-06-10 15:54:00+00:00,216.0,8.19,231.0,10.68,13.44,47.59359,-54.27349
2022-06-10 16:04:00+00:00,222.0,7.09,238.0,10.68,13.44,47.59359,-54.27349
2022-06-10 16:14:00+00:00,199.0,9.88,194.0,12.97,13.68,47.59359,-54.27349
2022-06-10 16:24:00+00:00,196.0,11.33,192.0,13.11,13.68,47.59359,-54.27349
2022-06-10 16:34:00+00:00,220.0,11.54,223.0,13.09,13.68,47.59359,-54.27349
2022-06-10 16:44:00+00:00,230.0,11.51,232.0,13.05,13.68,47.59359,-54.27349
2022-06-10 16:54:00+00:00,224.0,10.92,227.0,13.03,13.68,47.59359,-54.27349
2022-06-10 17:04:00+00:00,198.0,9.15,198.0,10.55,13.68,47.59359,-54.27349
2022-06-10 17:14:00+00:00,180.0,9.41,188.0,10.9,13.6,47.59359,-54.27349
2022-06-10 17:24:00+00:00,198.0,6.59,205.0,7.72,13.6,47.59359,-54.27349
2022-06-10 17:34:00+00:00,232.0,12.06,233.0,12.66,13.6,47.59359,-54.27349
2022-06-10 17:44:00+00:00,223.0,12.39,223.0,13.77,13.6,47.59359,-54.27349
2022-06-10 17:54:00+00:00,217.0,12.74,221.0,14.32,13.6,47.59359,-54.27349
2022-06-10 18:04:00+00:00,225.0,12.95,222.0,14.49,13.6,47.59359,-54.27349
2022-06-10 18:14:00+00:00,226.0,11.31,225.0,13.9,13.68,47.59359,-54.27349
2022-06-10 18:24:00+00:00,233.0,10.97,232.0,12.79,13.68,47.59359,-54.27349
2022-06-10 18:34:00+00:00,230.0,11.42,229.0,13.76,13.68,47.59359,-54.27349
2022-06-10 18:44:00+00:00,242.0,10.52,240.0,11.59,13.68,47.59359,-54.27349
2022-06-10 18:54:00+00:00,211.0,6.89,212.0,8.08,13.68,47.59359,-54.27349
2022-06-10 19:04:00+00:00,235.0,8.11,238.0,10.79,13.68,47.59359,-54.27349
2022-06-10 19:14:00+00:00,194.0,10.5,214.0,13.12,13.44,47.59359,-54.27349
2022-06-10 19:24:00+00:00,214.0,7.82,229.0,11.63,13.44,47.59359,-54.27349
2022-06-10 19:34:00+00:00,191.0,13.51,191.0,15.54,13.44,47.59359,-54.27349
2022-06-10 19:44:00+00:00,199.0,13.17,196.0,15.08,13.44,47.59359,-54.27349
2022-06-10 19:54:00+00:00,191.0,14.14,192.0,16.22,13.44,47.59359,-54.27349
2022-06-10 20:04:00+00:00,198.0,13.92,209.0,17.05,13.44,47.59359,-54.27349
2022-06-10 20:14:01+00:00,203.0,14.6,212.0,18.07,13.68,47.59359,-54.27349
2022-06-10 20:24:01+00:00,199.0,14.52,211.0,16.98,13.68,47.59359,-54.27349
2022-06-10 20:34:01+00:00,196.0,14.59,210.0,17.6,13.68,47.59359,-54.27349
2022-06-10 20:44:01+00:00,192.0,15.36,204.0,17.94,13.68,47.59359,-54.27349
2022-06-10 20:54:01+00:00,205.0,15.48,208.0,19.1,13.68,47.59359,-54.27349
2022-06-10 21:04:01+00:00,206.0,15.9,212.0,18.41,13.68,47.59359,-54.27349
2022-06-10 21:14:00+00:00,199.0,15.94,202.0,18.95,13.37,47.59359,-54.27349
2022-06-10 21:24:00+00:00,194.0,15.92,211.0,18.84,13.37,47.59359,-54.27349
2022-06-10 21:34:00+00:00,197.0,15.11,209.0,18.68,13.37,47.59359,-54.27349
2022-06-10 21:44:00+00:00,195.0,16.54,204.0,18.97,13.37,47.59359,-54.27349
2022-06-10 21:54:00+00:00,200.0,17.42,198.0,20.22,13.37,47.59359,-54.27349
2022-06-10 22:04:00+00:00,195.0,16.45,202.0,18.48,13.37,47.59359,-54.27349
2022-06-10 22:14:00+00:00,194.0,15.08,209.0,18.28,13.37,47.59359,-54.27349
2022-06-10 22:24:00+00:00,197.0,15.45,209.0,18.29,13.37,47.59359,-54.27349
2022-06-10 22:34:00+00:00,200.0,16.86,204.0,19.83,13.37,47.59359,-54.27349
2022-06-10 22:44:00+00:00,195.0,13.12,201.0,16.34,13.37,47.59359,-54.27349
2022-06-10 22:54:00+00:00,193.0,13.77,197.0,16.62,13.37,47.59359,-54.27349
2022-06-10 23:04:00+00:00,184.0,14.31,182.0,18.32,13.37,47.59359,-54.27349
2022-06-10 23:14:00+00:00,185.0,14.84,184.0,16.58,12.89,47.59359,-54.27349
2022-06-10 23:24:00+00:00,192.0,14.59,186.0,17.77,12.89,47.59359,-54.27349
2022-06-10 23:34:00+00:00,186.0,17.16,204.0,21.0,12.89,47.59359,-54.27349
2022-06-10 23:44:00+00:00,203.0,17.17,211.0,19.56,12.89,47.59359,-54.27349
2022-06-10 23:54:00+00:00,203.0,14.89,204.0,19.31,12.89,47.59359,-54.27349
